Wind_Speed
62 62 63 62 62 62 67 72 69 68 72 72 71 73 73 72 75 78 81 78 76 72 69 64 62 59 59 63 61 59 56 56 54 54 53 54 53 54 56 57 58 58 59
70 62 68 65 66 66 69 75 78 74 72 72 76 77 75 70 69 73 76 79 77 71 70 69 68 67 65 68 67 62 62 59 56 56 58 59 59 58 58 57 56 56 57
82 78 75 76 76 78 80 79 81 80 78 79 79 80 78 72 71 76 77 76 74 73 72 72 74 72 71 75 76 67 66 60 56 57 62 64 63 60 60 58 55 53 54
87 91 92 91 91 86 86 87 86 87 84 83 84 81 79 74 76 82 84 82 79 77 74 72 75 76 76 71 72 79 67 65 61 59 60 66 67 63 62 60 58 56 53
85 87 85 90 87 87 82 80 89 94 93 92 91 87 81 80 81 84 86 86 84 83 78 80 81 85 82 76 76 78 69 70 68 65 61 65 72 68 63 62 62 58 56
95 96 93 89 85 81 76 77 75 86 94 94 98 95 92 84 87 89 88 90 91 92 86 83 84 88 86 83 77 77 74 71 68 65 66 68 73 70 69 64 64 64 62
98 100 103 100 99 93 90 84 86 86 86 87 84 87 93 90 88 88 90 87 88 88 84 82 81 78 84 84 74 78 79 76 76 68 68 72 73 73 74 70 67 64 63
106 103 103 105 106 107 104 101 101 98 101 95 97 98 98 98 105 98 97 94 89 74 73 75 76 75 76 73 75 77 73 69 71 68 71 77 81 80 79 75 66 63 67
104 105 105 105 107 109 109 111 106 105 111 113 103 100 99 88 87 88 85 78 78 79 80 77 79 76 71 72 73 72 71 70 71 67 76 80 79 78 77 73 69 68 68
94 96 98 99 101 102 105 107 108 109 108 113 112 106 103 95 88 81 85 84 78 82 87 76 79 80 75 75 80 74 72 72 75 74 80 81 78 72 70 67 66 68 69
92 92 92 92 91 92 94 96 99 101 101 100 101 103 106 107 99 93 83 79 82 83 85 90 88 86 66 60 61 74 69 71 71 75 77 72 68 69 66 65 66 65 66
93 93 93 93 93 93 94 94 95 96 96 94 94 93 95 100 99 98 102 92 82 81 81 76 73 73 68 66 64 64 68 69 73 76 76 73 67 66 64 64 68 68 67
90 91 92 93 92 92 93 93 96 97 98 95 94 92 88 89 95 94 93 102 100 86 82 76 70 67 68 67 68 67 71 71 71 74 76 75 71 74 72 72 71 70 71
87 85 85 86 86 86 87 88 90 91 94 97 96 93 89 87 85 90 93 93 98 105 91 83 82 80 76 70 69 67 70 74 79 80 76 73 70 76 75 69 69 71 71
76 75 76 77 77 78 79 80 83 84 88 91 90 91 88 84 81 83 82 85 88 92 102 94 82 79 78 77 71 65 73 75 75 69 68 72 72 72 75 74 76 68 68
64 63 62 62 62 64 66 67 71 76 79 83 85 85 82 79 77 77 76 75 78 78 80 89 81 78 80 80 75 73 72 80 78 75 75 75 79 76 72 75 77 71 72
51 51 54 57 60 62 63 64 63 64 66 71 75 77 75 71 71 73 72 72 74 73 65 67 72 71 70 73 73 73 76 77 78 77 78 78 80 82 79 80 81 74 73
46 48 46 52 58 58 58 57 56 55 55 58 62 66 64 62 62 65 67 68 71 73 69 56 59 65 71 73 76 78 73 74 79 74 73 72 76 75 74 68 66 65 65
38 40 45 49 45 40 38 38 39 41 42 45 47 50 51 53 57 59 63 63 65 68 71 61 57 52 53 55 61 68 74 82 83 72 71 71 62 57 55 57 59 59 61
34 39 36 32 28 28 27 25 25 25 27 30 30 35 41 44 48 53 57 61 65 69 72 67 59 59 55 52 49 49 54 55 54 54 54 54 54 58 60 62 64 67 70
27 31 24 18 20 21 19 16 13 13 15 18 21 26 33 37 42 47 53 59 63 68 69 68 62 62 57 54 53 53 53 53 52 55 55 58 62 65 66 65 66 67 69
23 25 24 23 20 18 19 19 16 11 7 9 14 20 26 31 36 41 45 49 51 58 64 65 67 63 63 59 58 57 56 56 55 57 58 60 62 64 64 65 67 68 67
23 24 25 24 21 19 19 18 16 12 9 6 7 10 13 17 22 28 34 39 42 48 51 54 55 59 63 64 58 55 55 56 58 60 63 64 64 64 63 62 61 62 63
26 25 23 21 20 18 17 15 13 10 8 11 8 1 5 10 13 16 19 23 28 34 38 42 44 49 52 51 50 48 52 54 55 55 53 54 55 56 56 58 57 57 58
36 37 36 30 22 18 16 15 14 10 6 6 7 4 2 2 3 5 6 9 12 17 23 29 34 37 37 39 41 40 42 44 42 43 45 48 51 51 49 49 52 53 55
33 34 35 35 34 32 25 16 13 10 7 4 4 4 4 6 6 7 7 9 11 13 16 20 23 27 32 34 34 35 36 38 38 39 43 46 48 49 48 48 50 52 54
Wind_Direction
264 259 261 265 267 259 254 256 261 265 268 268 265 261 260 258 258 261 260 256 255 250 250 251 253 257 260 267 273 275 273 271 269 269 269 269 268 268 266 265 266 267 267
262 252 260 266 267 262 260 256 259 263 266 263 264 266 264 259 261 260 259 260 254 253 255 252 252 257 263 269 271 269 270 269 269 268 268 268 266 265 264 265 267 266 266
261 257 254 260 266 269 265 261 256 257 260 261 259 259 258 255 252 252 256 255 254 253 255 257 258 262 267 269 270 273 269 268 269 271 271 270 267 265 264 265 265 266 269
264 264 267 269 268 268 263 259 256 253 254 255 257 254 252 248 248 247 247 250 252 252 253 258 261 259 263 264 265 269 269 267 270 274 276 273 268 264 264 265 265 267 269
270 270 271 269 266 263 260 256 254 250 252 252 252 249 242 244 242 243 245 247 250 251 254 256 257 259 261 263 263 269 269 272 270 272 276 273 268 265 265 267 270 271 271
276 274 273 270 261 256 254 253 256 254 252 253 254 252 245 242 243 242 243 245 246 249 254 258 262 261 267 266 262 261 264 270 272 274 273 276 265 264 264 266 268 270 271
272 270 270 272 266 261 260 254 258 263 264 262 259 257 247 246 247 252 251 250 249 252 256 258 260 264 264 266 260 258 261 266 268 272 275 269 263 262 264 264 266 268 271
274 272 271 269 267 266 263 261 260 256 263 266 264 264 264 261 263 265 264 260 257 262 262 255 260 262 259 262 261 259 263 265 269 270 270 267 264 265 266 267 267 265 267
276 275 273 271 268 268 266 263 263 262 263 265 261 257 257 256 254 254 260 258 250 250 246 252 256 257 256 258 260 260 264 265 267 269 270 267 265 265 265 263 264 266 264
276 275 275 274 273 271 269 267 267 266 262 261 260 253 251 253 248 247 248 244 244 247 249 248 248 251 253 255 256 254 258 260 266 270 271 267 263 263 261 264 263 263 264
277 277 277 276 274 273 271 269 267 265 263 259 257 255 252 252 248 248 244 245 243 244 248 253 251 253 254 257 261 266 265 265 268 269 268 259 259 261 262 262 264 269 269
279 278 277 275 273 272 270 269 268 267 265 264 261 257 254 252 253 252 250 246 241 243 244 246 251 253 253 254 259 263 259 257 262 265 264 255 259 259 264 260 268 270 273
280 279 278 276 274 272 270 268 266 266 266 264 262 260 257 255 252 251 250 251 252 245 242 242 249 253 253 256 259 264 261 259 257 260 260 257 261 260 261 261 263 268 274
283 281 280 278 276 273 270 267 265 264 263 262 261 260 258 256 254 251 251 252 251 251 247 248 251 255 252 255 258 262 265 256 254 256 256 255 258 255 260 265 268 271 267
285 283 280 278 276 274 272 270 266 262 261 260 260 259 257 255 254 252 250 252 253 253 255 251 252 252 253 252 257 257 256 258 255 252 252 253 255 257 261 261 267 266 266
289 287 286 285 283 281 278 275 272 267 262 260 258 257 255 253 251 251 249 246 247 246 250 255 252 253 253 252 255 255 254 261 257 255 252 250 252 260 262 259 261 264 266
291 287 286 287 286 283 280 276 274 269 268 262 259 257 254 250 248 247 246 243 239 240 237 245 247 250 250 247 246 253 250 251 250 250 249 252 254 259 261 263 261 265 263
294 293 294 297 292 287 282 278 273 268 265 264 259 255 252 249 245 243 242 240 237 238 233 238 243 245 244 241 244 244 242 245 245 248 252 255 258 261 261 261 263 261 262
301 306 305 300 298 295 290 285 278 271 265 261 257 254 247 243 240 239 238 237 234 233 233 235 234 233 236 237 238 240 242 245 244 247 252 254 254 254 252 253 256 261 265
319 322 314 317 319 318 310 298 287 277 269 261 254 247 243 239 236 236 234 232 229 228 233 234 233 232 234 236 234 233 231 234 238 241 244 249 251 251 255 258 262 265 267
336 351 348 356 6 7 2 347 321 294 273 257 245 239 238 236 233 232 232 230 229 228 228 230 231 233 233 232 234 238 241 245 246 249 251 249 251 254 257 261 264 265 267
338 339 348 358 5 5 1 0 359 350 316 267 246 239 235 235 234 234 234 234 232 227 225 226 226 231 236 238 239 241 246 250 255 255 255 253 256 256 259 262 263 266 268
351 349 346 343 343 345 344 342 348 350 344 309 270 251 243 237 233 231 233 234 232 228 227 230 231 233 236 240 242 244 246 248 249 249 250 252 255 257 259 261 263 265 267
2 352 350 354 356 356 356 357 352 352 14 27 26 300 211 207 213 218 222 226 231 235 236 236 237 240 245 250 251 248 246 247 247 247 249 252 254 258 261 263 265 268 270
20 23 24 13 353 342 344 351 359 6 353 339 340 346 36 69 125 163 193 215 229 237 238 235 235 236 239 242 250 251 248 245 247 250 252 255 257 259 259 263 267 270 272
12 12 14 16 19 19 9 344 324 329 339 324 310 310 277 242 234 219 239 238 238 246 233 232 237 240 242 244 245 244 244 244 248 254 254 252 253 255 261 267 271 272 275
Height
5629 5627 5626 5626 5627 5627 5628 5628 5625 5623 5623 5625 5626 5626 5627 5627 5626 5630 5631 5631 5633 5635 5637 5641 5644 5643 5644 5644 5644 5644 5643 5643 5644 5645 5646 5646 5647 5649 5651 5651 5653 5653 5654
5604 5607 5606 5606 5606 5606 5607 5606 5606 5606 5605 5605 5605 5605 5606 5608 5609 5610 5611 5615 5615 5617 5621 5621 5624 5625 5625 5626 5628 5628 5627 5625 5626 5629 5628 5629 5631 5632 5634 5635 5636 5636 5637
5583 5582 5582 5583 5584 5584 5584 5584 5584 5585 5585 5585 5585 5585 5585 5587 5589 5591 5594 5594 5598 5598 5600 5604 5604 5603 5604 5608 5610 5611 5611 5610 5610 5611 5612 5613 5614 5615 5617 5618 5619 5618 5620
5557 5556 5555 5554 5556 5559 5559 5559 5560 5561 5562 5562 5563 5564 5564 5565 5568 5569 5571 5573 5576 5579 5578 5582 5583 5586 5586 5587 5589 5590 5592 5592 5593 5594 5594 5595 5596 5598 5600 5600 5601 5599 5602
5530 5530 5530 5530 5529 5529 5530 5531 5531 5533 5534 5535 5535 5536 5537 5540 5542 5544 5547 5550 5551 5555 5556 5560 5562 5565 5568 5568 5569 5571 5572 5572 5573 5574 5576 5577 5579 5580 5580 5580 5582 5583 5583
5500 5500 5501 5503 5503 5501 5501 5503 5504 5505 5507 5509 5510 5513 5513 5515 5516 5517 5518 5522 5525 5530 5537 5539 5542 5542 5547 5548 5548 5548 5552 5552 5552 5553 5556 5558 5559 5559 5560 5562 5563 5564 5565
5471 5471 5470 5470 5473 5472 5472 5472 5475 5476 5478 5481 5483 5486 5489 5491 5492 5495 5497 5499 5502 5508 5513 5516 5517 5521 5524 5525 5525 5526 5529 5530 5533 5535 5537 5540 5538 5539 5540 5541 5544 5547 5545
5437 5438 5438 5437 5438 5439 5440 5440 5444 5444 5446 5451 5454 5457 5460 5464 5461 5464 5468 5474 5479 5482 5488 5491 5495 5497 5501 5502 5501 5502 5507 5509 5512 5515 5518 5518 5518 5518 5521 5524 5525 5527 5527
5405 5403 5403 5401 5401 5401 5401 5404 5409 5410 5414 5416 5423 5428 5431 5437 5434 5436 5438 5444 5452 5458 5462 5465 5471 5476 5479 5480 5479 5481 5485 5489 5492 5493 5496 5497 5496 5498 5501 5503 5504 5505 5505
5377 5373 5370 5367 5365 5365 5364 5365 5367 5368 5376 5380 5387 5393 5398 5406 5408 5408 5409 5416 5424 5432 5436 5439 5446 5452 5452 5456 5458 5459 5463 5469 5470 5474 5473 5475 5477 5478 5480 5481 5482 5483 5484
5346 5343 5340 5338 5336 5334 5331 5332 5330 5331 5332 5340 5346 5356 5361 5370 5378 5380 5384 5388 5395 5400 5409 5415 5421 5424 5427 5432 5433 5436 5443 5446 5446 5450 5450 5452 5456 5459 5460 5460 5460 5462 5462
5317 5314 5310 5307 5304 5303 5300 5300 5297 5296 5298 5304 5307 5318 5325 5334 5342 5349 5356 5361 5366 5373 5381 5390 5395 5400 5401 5408 5410 5416 5418 5422 5423 5426 5431 5432 5435 5437 5438 5439 5439 5440 5440
5286 5282 5275 5270 5269 5268 5265 5266 5264 5264 5263 5269 5272 5281 5294 5299 5307 5315 5324 5333 5337 5343 5354 5366 5372 5376 5378 5383 5387 5392 5393 5400 5401 5405 5411 5413 5415 5415 5415 5417 5417 5417 5418
5254 5251 5244 5237 5235 5232 5231 5230 5229 5232 5231 5231 5237 5247 5258 5266 5277 5285 5291 5295 5305 5314 5328 5340 5347 5352 5356 5362 5365 5370 5375 5379 5382 5386 5387 5390 5390 5394 5395 5394 5395 5394 5394
5225 5220 5213 5207 5203 5201 5198 5197 5196 5199 5198 5200 5206 5212 5224 5237 5249 5252 5262 5270 5276 5286 5294 5310 5319 5325 5331 5338 5346 5350 5355 5359 5360 5361 5364 5367 5370 5372 5373 5373 5372 5372 5371
5201 5195 5189 5183 5180 5175 5172 5171 5169 5167 5169 5170 5176 5180 5195 5208 5216 5223 5233 5243 5249 5258 5267 5282 5292 5299 5307 5314 5321 5329 5335 5339 5339 5340 5341 5345 5348 5349 5349 5348 5349 5349 5349
5181 5176 5170 5164 5158 5152 5149 5146 5146 5144 5141 5144 5148 5155 5165 5181 5186 5195 5207 5217 5223 5232 5249 5259 5268 5275 5282 5290 5295 5307 5314 5313 5317 5317 5320 5323 5326 5326 5326 5328 5328 5327 5327
5166 5160 5154 5147 5137 5130 5124 5121 5120 5121 5122 5122 5124 5131 5142 5153 5162 5171 5181 5189 5201 5212 5230 5239 5246 5252 5258 5266 5274 5279 5286 5291 5291 5293 5297 5300 5304 5305 5305 5305 5306 5306 5306
5155 5149 5140 5129 5120 5113 5107 5103 5102 5102 5104 5105 5107 5113 5123 5131 5140 5150 5159 5170 5182 5194 5208 5221 5230 5235 5240 5243 5246 5252 5260 5266 5269 5270 5276 5281 5284 5285 5285 5285 5287 5287 5287
5147 5138 5127 5119 5111 5104 5098 5094 5092 5092 5093 5094 5097 5102 5108 5117 5125 5133 5142 5151 5162 5174 5189 5203 5212 5219 5218 5223 5228 5233 5239 5245 5248 5252 5257 5262 5265 5267 5268 5269 5269 5269 5269
5143 5134 5124 5117 5111 5105 5100 5095 5091 5089 5089 5090 5092 5096 5100 5106 5113 5120 5128 5135 5145 5158 5172 5185 5193 5195 5198 5204 5210 5218 5223 5229 5232 5237 5242 5244 5246 5248 5250 5249 5249 5249 5247
5141 5134 5127 5120 5114 5109 5104 5099 5095 5092 5090 5089 5089 5091 5095 5100 5105 5111 5118 5125 5134 5144 5155 5163 5168 5172 5182 5189 5197 5203 5207 5213 5217 5220 5222 5225 5228 5229 5229 5230 5230 5229 5227
5140 5133 5126 5120 5114 5109 5105 5101 5097 5095 5092 5090 5089 5090 5092 5096 5099 5104 5110 5116 5123 5132 5139 5146 5151 5160 5168 5175 5181 5186 5191 5195 5198 5201 5204 5207 5208 5210 5210 5210 5210 5210 5209
5140 5133 5126 5120 5115 5110 5106 5103 5099 5097 5095 5094 5092 5092 5092 5094 5097 5101 5105 5110 5117 5123 5129 5136 5142 5148 5154 5159 5164 5169 5173 5178 5181 5184 5186 5189 5191 5194 5192 5193 5193 5192 5191
5144 5137 5129 5122 5116 5111 5108 5104 5101 5099 5097 5097 5096 5096 5097 5098 5100 5103 5106 5110 5114 5118 5122 5127 5132 5137 5142 5146 5150 5154 5159 5163 5165 5168 5171 5174 5176 5177 5178 5179 5178 5175 5173
5146 5140 5134 5127 5121 5115 5109 5105 5102 5101 5099 5097 5097 5097 5098 5100 5102 5105 5107 5110 5113 5116 5119 5122 5125 5129 5132 5137 5140 5143 5147 5151 5153 5155 5158 5160 5162 5164 5164 5162 5160 5159 5157